Location: Barruelo
(41.2448°N, 3.8231°W)
Time: 20:51:28
(UTC+00:00)

YAOGAN 1 - Pass Details

Date: 11 December 2025
Orbit: 605 x 607 km, 97.8° (Epoch: 12 January)

Event Time Altitude Azimuth Distance (km) Brightness Sun altitude
Rises 18:28:18 0° 158° (SSE) 2,851 5.9 -18.5°
Reaches altitude 10° 18:30:28 10° 155° (SSE) 1,952 5.0 -18.9°
Maximum altitude 18:34:40 62° 75° (ENE) 687 2.4 -19.6°
Drops below altitude 10° 18:38:52 10° 355° (N) 1,966 5.0 -20.4°
Sets 18:41:04 0° 352° (N) 2,874 5.9 -20.8°
